This demonstration page uses our WeatherBlox Daily Observations layout. Learn more.

Left ArrowRight Arrow

31.84235, -102.49876

Hourly Observations for May 31, 2017

Temp ( °F °C ) Dew Point ( °F °C ) Humidity (%) Winds ( mph kmh ) Pressure ( in mb ) Visibility ( mi km ) Precip ( " mm )
12:53 am 00:53 Clear 72 22.2 57 13.9 59 59 S 12 19 29.97 1015 10 16 0.00 0.00
1:53 am 01:53 Clear 70 21.1 57 13.9 64 64 S 10 17 29.97 1015 10 16 0.00 0.00
2:53 am 02:53 Clear 69 20.6 56 13.3 63 63 S 7 11 29.97 1015 10 16 0.00 0.00
3:53 am 03:53 Clear 67 19.4 56 13.3 68 68 S 7 11 29.97 1015 10 16 0.00 0.00
4:53 am 04:53 Clear 66 18.9 56 13.3 70 70 SSE 7 11 29.97 1015 10 16 0.00 0.00
5:53 am 05:53 Clear 64 17.8 55 12.8 73 73 ESE 6 9 29.97 1015 10 16 0.00 0.00
6:53 am 06:53 Sunny 63 17.2 55 12.8 76 76 ESE 8 13 29.98 1015 10 16 0.00 0.00
7:53 am 07:53 Sunny 65 18.3 56 13.3 73 73 ESE 9 15 29.98 1015 10 16 0.00 0.00
8:53 am 08:53 Sunny 68 20 56 13.3 65 65 ESE 9 15 29.98 1015 10 16 0.00 0.00
9:53 am 09:53 Sunny 71 21.7 57 13.9 61 61 ESE 13 20 29.98 1015 10 16 0.00 0.00
10:53 am 10:53 Sunny 75 23.9 57 13.9 54 54 SE 13 20 29.97 1015 10 16 0.00 0.00
11:53 am 11:53 Mostly Cloudy 77 25 58 14.4 52 52 SSE 16 26 29.97 1015 10 16 0.00 0.00
12:53 pm 12:53 Partly Cloudy 80 26.7 58 14.4 47 47 SSE 17 28 29.95 1014 10 16 0.00 0.00
1:53 pm 13:53 Cloudy 77 25 57 13.9 50 50 SE 20 31 29.95 1014 10 16 0.00 0.00
2:05 pm 14:05 Mostly Cloudy with Nearby Thunderstorms 79 26.1 58 14.4 49 49 SE 16 26 29.88 1012 10 16 0.00 0.00
2:20 pm 14:20 Mostly Sunny 78 25.6 58 14.4 50 50 SSE 18 30 29.88 1012 10 16 0.00 0.00
2:53 pm 14:53 Sunny 77 25 59 15 54 54 ESE 14 22 29.93 1013 10 16 0.00 0.00
3:51 pm 15:51 Mostly Cloudy with Nearby Thunderstorms 81 27 57 14 45 45 S 17 28 29.85 1011 10 16 0.00 0.00
3:53 pm 15:53 Partly Cloudy with Nearby Thunderstorms 80 26.7 57 13.9 45 45 S 20 31 29.90 1013 10 16 0.00 0.00
4:02 pm 16:02 Mostly Cloudy with Thunderstorms 79 26.1 57 13.9 47 47 SSE 20 31 29.85 1011 10 16 0.00 0.00
4:17 pm 16:17 Cloudy with Nearby Thunderstorms 79 26.1 58 14.4 49 49 S 20 31 29.85 1011 10 16 0.00 0.03
4:53 pm 16:53 Mostly Cloudy with Nearby Thunderstorms 76 24.4 58 14.4 54 54 SE 22 35 29.91 1013 10 16 0.00 0.03
5:13 pm 17:13 Cloudy with Thunderstorms 68 20 62 16.7 81 81 E 17 28 29.91 1013 3 5 0.12 3.05
5:35 pm 17:35 Cloudy with Nearby Thunderstorms 69 20.6 63 17.2 81 81 E 16 26 29.91 1013 10 16 0.12 3.05
5:53 pm 17:53 Mostly Cloudy with Nearby Thunderstorms 70 21.1 64 17.8 82 82 E 15 24 29.92 1013 10 16 0.12 3.05
6:25 pm 18:25 Partly Cloudy with Thunderstorms 70 21.1 63 17.2 79 79 E 15 24 29.91 1013 10 16 0.00 0.00
6:53 pm 18:53 Cloudy with Thunderstorms 69 20.6 63 17.2 81 81 E 14 22 29.92 1013 10 16 0.00 0.00
7:53 pm 19:53 Partly Cloudy with Strong Thunderstorms 64 17.8 62 16.7 93 93 NNE 16 26 29.96 1015 1 1 0.49 12.45
8:02 pm 20:02 Partly Cloudy with Strong Thunderstorms 63 17.2 61 16.1 93 93 NNE 18 30 29.97 1015 1 2 0.20 5.08
8:15 pm 20:15 Mostly Cloudy with Strong Thunderstorms 63 17.2 62 16.7 97 97 NE 20 31 29.97 1015 1 1 0.88 22.35
8:24 pm 20:24 Cloudy with Thunderstorms 65 18.3 63 17.2 93 93 NNE 17 28 29.97 1015 2 3 0.90 22.86
8:27 pm 20:27 Cloudy with Thunderstorms 64 17.8 63 17.2 96 96 NNE 17 28 29.97 1015 5 8 0.91 23.11
8:53 pm 20:53 Cloudy with Thunderstorms 65 18.3 63 17.2 93 93 NE 18 30 29.95 1014 8 13 0.95 24.13
9:18 pm 21:18 Cloudy with Nearby Thunderstorms 64 17.8 63 17.2 96 96 E 12 19 29.97 1015 10 16 0.03 0.76
9:50 pm 21:50 Partly Cloudy with Light Rain 66 19 64 18 94 94 E 10 17 29.97 1015 10 16 0.03 0.76
9:53 pm 21:53 Partly Cloudy with Light Rain 66 18.9 64 17.8 93 93 E 10 17 29.94 1014 10 16 0.03 0.76
10:53 pm 22:53 Clear 67 19.4 60 15.6 79 79 ESE 7 11 29.95 1014 10 16 0.00 0.03
11:53 pm 23:53 Mostly Clear 67 19.4 60 15.6 79 79 ESE 8 13 29.95 1014 10 16 0.00 0.00

Powered by AerisWeather